Location: Cran-Gévrier
(45.9039°N, 6.1012°E)
Time: 05:37:31
(UTC+00:00)

Gblst 52 Del rocket - Pass Details

Date: 09 February 2023
Orbit: 805 x 1364 km, 51.5° (Epoch: 29 March)

Event Time Altitude Azimuth Distance (km) Brightness Sun altitude
Rises 19:01:21 0° 290° (WNW) 3,379 8.6 -22.8°
Reaches altitude 10° 19:03:56 10° 295° (WNW) 2,412 7.5 -23.2°
Maximum altitude 19:09:21 53° 12° (NNE) 983 4.4 -24.2°
Enters shadow 19:10:02 50° 39° (NE) 1,023 4.3 -24.3°
